[[{"header":{"parameterUnit":"m.s-1","parameterCategory":1,"la1":30.2991,"la2":30.254,"lo1":-89.0895,"lo2":-89.0444,"dy":0.0017,"dx":0.0017,"nx":28,"ny":28,"refTime":"2025-07-23T21:00:00:Z","depth":0,"parameterNumber":2,"parameterNumberName":"U-component_of_WINDS"},"data":[0,0,0,0,0,0,0,0,0,0,0,0,0,0,0,0,0,0,0,0,0,0,0,0,0,0,0,0,0,0,0,0,0,0,0,0,0,0,0,0,0,0,0,0,0,0,0,0,0,0,0,0,0,0,0,0,0,0,-1.263,-1.263,0,-1.2602,-1.2602,-1.2601,-1.256,-1.256,-1.2559,-1.2558,-1.2531,-1.253,-1.253,0,0,0,0,0,0,0,0,0,0,0,0,0,-1.2649,-1.2649,-1.263,-1.263,-1.2629,-1.2602,-1.2602,-1.2601,-1.256,-1.256,-1.2559,-1.2558,-1.2531,-1.253,-1.253,0,0,0,0,0,0,0,0,0,0,0,0,0,-1.2633,-1.2649,-1.263,-1.2606,-1.2603,-1.2602,-1.2602,-1.2601,-1.2561,-1.256,-1.2558,-1.2557,-1.2531,-1.253,-1.253,-1.2551,0,0,-1.253,-1.253,0,0,0,0,0,0,0,0,-1.2634,-1.2632,-1.261,-1.2607,-1.2605,-1.2583,-1.2598,-1.2584,-1.2561,-1.2577,-1.2558,-1.2557,-1.2549,-1.2547,-1.2544,-1.255,-1.2549,-1.253,-1.253,-1.253,-1.253,0,0,0,0,0,0,0,-1.2635,-1.2633,-1.2619,-1.2609,-1.2606,-1.2596,-1.2593,-1.2595,-1.2569,-1.2575,-1.2572,-1.2569,-1.2548,-1.2545,-1.2544,-1.2548,-1.253,-1.253,-1.253,-1.253,-1.2569,-1.257,0,0,0,0,0,0,-1.264,-1.2635,-1.262,-1.2618,-1.2617,-1.2597,-1.2593,-1.2591,-1.2569,-1.2565,-1.257,-1.2568,-1.2545,-1.2544,-1.2542,-1.2565,-1.253,-1.253,-1.253,-1.2568,-1.2569,-1.257,0,0,0,0,0,0,-1.264,-1.2639,-1.2621,-1.2625,-1.2622,-1.2598,-1.2596,-1.2591,-1.2589,-1.2565,-1.2561,-1.2572,-1.2544,-1.2543,-1.2549,-1.2563,-1.253,-1.253,-1.2566,-1.2568,-1.2569,-1.2611,0,0,0,0,0,0,-1.2641,-1.2639,-1.2647,-1.2626,-1.2622,-1.2628,-1.2597,-1.2592,-1.2588,-1.2584,-1.2566,-1.2562,-1.2544,-1.2549,-1.2549,-1.2563,-1.253,-1.2565,-1.2567,-1.2569,-1.2608,-1.2613,-1.2618,0,0,0,0,0,-1.2642,-1.266,-1.2648,-1.2646,-1.2631,-1.2629,-1.2627,-1.2605,-1.259,-1.2597,-1.2582,-1.2562,-1.2562,-1.255,-1.255,-1.2564,-1.2564,-1.2566,-1.2569,-1.2606,-1.2612,-1.2618,0,0,0,0,0,0,-1.2684,-1.2657,-1.2643,-1.2655,-1.2644,-1.2622,-1.2631,-1.2613,-1.2608,-1.2604,-1.2578,-1.2574,-1.2584,-1.2574,-1.2562,-1.2582,-1.256,-1.2562,-1.2588,-1.2594,-1.2599,-1.2602,-1.253,0,0,0,0,0,-1.2695,-1.2695,-1.2671,-1.2684,-1.268,-1.2656,-1.2655,-1.2638,-1.2627,-1.2623,-1.2608,-1.2598,-1.2595,-1.2594,-1.2591,-1.2606,-1.2601,-1.2615,-1.262,-1.2625,-1.2627,-1.2634,-1.264,-1.2578,-1.2578,-1.2578,0,0,-1.2717,-1.2702,-1.2704,-1.2692,-1.2682,-1.2683,-1.2653,-1.2655,-1.2656,-1.2623,-1.2628,-1.2617,-1.2604,-1.2615,-1.2619,-1.2607,-1.2643,-1.2628,-1.2631,-1.2632,-1.2637,-1.2643,-1.2648,-1.258,-1.2579,-1.2579,0,0,-1.2758,-1.2746,-1.2756,-1.2746,-1.2731,-1.2715,-1.2718,-1.2698,-1.2689,-1.2694,-1.2669,-1.2669,-1.2665,-1.2657,-1.2652,-1.2688,-1.267,-1.2688,-1.2715,-1.2722,-1.2727,-1.2731,-1.2744,-1.2749,-1.269,-1.2691,-1.2691,0,-1.2787,-1.2787,-1.2763,-1.2766,-1.2762,-1.2731,-1.274,-1.2732,-1.2718,-1.2715,-1.2702,-1.2696,-1.2685,-1.2693,-1.2702,-1.2699,-1.2701,-1.269,-1.2728,-1.2732,-1.2736,-1.2748,-1.2753,-1.2693,-1.2693,-1.2692,-1.2692,0,-1.2824,-1.2824,-1.2834,-1.2819,-1.2816,-1.2822,-1.2799,-1.2798,-1.2782,-1.2768,-1.2772,-1.2758,-1.275,-1.2751,-1.2736,-1.2757,-1.275,-1.2733,-1.271,-1.2744,-1.2755,-1.2759,-1.2696,-1.2695,-1.2695,-1.2694,0,0,-1.2892,-1.2863,-1.2867,-1.2859,-1.284,-1.284,-1.2845,-1.2837,-1.2837,-1.2828,-1.2831,-1.2828,-1.2812,-1.2806,-1.279,-1.2796,-1.2825,-1.2778,-1.2777,-1.2787,-1.2847,-1.286,-1.2866,-1.2812,-1.2813,-1.2814,-1.2848,0,-1.2929,-1.2935,-1.2913,-1.2925,-1.2925,-1.2895,-1.2899,-1.2888,-1.2875,-1.2873,-1.2858,-1.2856,-1.2835,-1.2831,-1.2836,-1.2821,-1.2837,-1.2818,-1.2815,-1.2816,-1.282,-1.2871,-1.2886,-1.2919,-1.2852,-1.2853,-1.2853,0,-1.2973,-1.2965,-1.2977,-1.2957,-1.2956,-1.296,-1.2951,-1.2949,-1.2936,-1.2925,-1.2919,-1.2899,-1.2902,-1.288,-1.2884,-1.2871,-1.2869,-1.2861,-1.2862,-1.2861,-1.2837,-1.2872,-1.2929,-1.2934,-1.286,-1.2859,-1.2859,0,-1.3021,-1.3014,-1.302,-1.3014,-1.2991,-1.2994,-1.2985,-1.297,-1.2966,-1.2958,-1.2955,-1.2948,-1.2944,-1.2939,-1.2917,-1.2903,-1.2924,-1.29,-1.2915,-1.2916,-1.2921,-1.2921,-1.2978,-1.292,-1.2919,-1.2919,-1.2919,0,-1.3065,-1.3074,-1.3041,-1.3045,-1.3053,-1.3027,-1.3036,-1.3024,-1.3011,-1.3011,-1.2985,-1.2987,-1.2958,-1.2956,-1.294,-1.2945,-1.2944,-1.2935,-1.2931,-1.2938,-1.2939,-1.2936,-1.2933,-1.2921,-1.292,-1.292,-1.292,0,-1.3121,-1.3099,-1.3104,-1.308,-1.3075,-1.3082,-1.3062,-1.3065,-1.3049,-1.305,-1.3049,-1.3024,-1.3021,-1.2999,-1.299,-1.2979,-1.299,-1.2981,-1.2995,-1.2992,-1.3009,-1.3007,-1.3066,-1.3072,-1.301,-1.301,-1.3011,0,-1.3151,-1.3157,-1.3134,-1.3132,-1.3123,-1.3121,-1.3117,-1.3091,-1.3088,-1.3072,-1.3077,-1.3071,-1.3065,-1.306,-1.3042,-1.3035,-1.3025,-1.3046,-1.3024,-1.3031,-1.3026,-1.3026,-1.3026,-1.3051,-1.3052,-1.3053,-1.3053,0,-1.3206,-1.3195,-1.319,-1.3181,-1.3176,-1.3168,-1.3159,-1.3159,-1.313,-1.3128,-1.3123,-1.3119,-1.3109,-1.3104,-1.3093,-1.3083,-1.3064,-1.306,-1.3063,-1.3071,-1.3078,-1.3074,-1.3008,-1.3059,-1.3059,-1.3058,-1.3058,-1.3058,-1.325,-1.3253,-1.3237,-1.3232,-1.3222,-1.3213,-1.3214,-1.3198,-1.3194,-1.3184,-1.3169,-1.3166,-1.3152,-1.3136,-1.3127,-1.3125,-1.3113,-1.3118,-1.3119,-1.3121,-1.3124,-1.3078,-1.3123,-1.3122,-1.3122,-1.3122,-1.3122,0,-1.3304,-1.3292,-1.3287,-1.3274,-1.327,-1.3251,-1.3239,-1.3237,-1.3235,-1.3223,-1.3217,-1.3211,-1.3205,-1.3186,-1.3178,-1.318,-1.317,-1.3178,-1.3178,-1.3176,-1.3135,-1.3133,-1.3186,-1.3186,-1.3186,-1.3186,-1.3186,-1.3186,-1.3331,-1.3336,-1.3323,-1.3322,-1.331,-1.3307,-1.3301,-1.3293,-1.3283,-1.3278,-1.3272,-1.3259,-1.3244,-1.3234,-1.3228,-1.3222,-1.3221,-1.3232,-1.3223,-1.3185,-1.3179,-1.3173,-1.3171,-1.3231,-1.3232,-1.3264,-1.3265,-1.3265]},{"header":{"parameterUnit":"m.s-1","parameterCategory":1,"la1":30.2991,"la2":30.254,"lo1":-89.0895,"lo2":-89.0444,"dy":0.0017,"dx":0.0017,"nx":28,"ny":28,"refTime":"2025-07-23T21:00:00:Z","depth":0,"parameterNumber":3,"parameterNumberName":"V-component_of_WINDS"},"data":[0,0,0,0,0,0,0,0,0,0,0,0,0,0,0,0,0,0,0,0,0,0,0,0,0,0,0,0,0,0,0,0,0,0,0,0,0,0,0,0,0,0,0,0,0,0,0,0,0,0,0,0,0,0,0,0,0,0,5.7996,5.7997,0,5.8094,5.8095,5.8096,5.8039,5.8036,5.8033,5.803,5.8124,5.8129,5.8134,0,0,0,0,0,0,0,0,0,0,0,0,0,5.7753,5.7758,5.7996,5.7998,5.7999,5.8093,5.8095,5.8096,5.8039,5.8036,5.8032,5.8029,5.8123,5.8129,5.8135,0,0,0,0,0,0,0,0,0,0,0,0,0,5.7855,5.776,5.7996,5.7982,5.7982,5.8093,5.8095,5.8096,5.804,5.8036,5.8031,5.8028,5.8121,5.8128,5.8135,5.8265,0,0,5.8159,5.8162,0,0,0,0,0,0,0,0,5.785,5.7864,5.7983,5.7983,5.7983,5.805,5.8043,5.8153,5.8041,5.8018,5.803,5.8026,5.8102,5.8111,5.8138,5.8269,5.8273,5.8159,5.8164,5.8167,5.8169,0,0,0,0,0,0,0,5.7843,5.786,5.8035,5.7985,5.7985,5.7968,5.7978,5.8064,5.8082,5.8019,5.8015,5.8028,5.8102,5.8131,5.814,5.8274,5.8159,5.8166,5.8171,5.8173,5.851,5.8515,0,0,0,0,0,0,5.7838,5.7854,5.8031,5.8037,5.7905,5.7976,5.7987,5.8032,5.8081,5.8084,5.8031,5.8025,5.812,5.8131,5.8143,5.8294,5.8167,5.8174,5.8179,5.8506,5.8511,5.8516,0,0,0,0,0,0,5.7833,5.7854,5.8028,5.7945,5.7966,5.7984,5.8036,5.8037,5.8066,5.809,5.8092,5.8059,5.8117,5.8132,5.8234,5.8296,5.8178,5.8185,5.8501,5.8508,5.8514,5.8598,0,0,0,0,0,0,5.7826,5.7853,5.7904,5.7947,5.7971,5.812,5.804,5.8041,5.808,5.8072,5.8116,5.8119,5.8115,5.8223,5.8242,5.8304,5.819,5.8495,5.8504,5.8512,5.859,5.8607,5.8621,0,0,0,0,0,5.7818,5.7924,5.7907,5.7929,5.8036,5.8123,5.8137,5.8132,5.8085,5.8135,5.815,5.8118,5.8287,5.8234,5.8254,5.832,5.8491,5.8501,5.8511,5.8583,5.8603,5.8621,0,0,0,0,0,0,5.7887,5.7929,5.7911,5.8035,5.8076,5.8114,5.8177,5.8154,5.8208,5.8199,5.8188,5.8199,5.8304,5.8323,5.8263,5.8445,5.8381,5.8396,5.8429,5.8449,5.8464,5.8456,5.8197,0,0,0,0,0,5.7917,5.7987,5.8019,5.8125,5.8147,5.8159,5.8197,5.8189,5.823,5.8247,5.8269,5.8309,5.837,5.8411,5.847,5.8593,5.8599,5.8648,5.8664,5.8677,5.8688,5.875,5.8771,5.8549,5.8549,5.8548,0,0,5.7979,5.8011,5.8056,5.814,5.8171,5.824,5.8174,5.8251,5.8301,5.8258,5.8355,5.8373,5.8416,5.8528,5.8578,5.8546,5.8751,5.8689,5.8699,5.8704,5.8762,5.8783,5.8802,5.8555,5.8554,5.8553,0,0,5.8127,5.816,5.825,5.8282,5.833,5.8336,5.8358,5.8399,5.8409,5.8506,5.8474,5.8533,5.864,5.8671,5.8701,5.8857,5.8828,5.8876,5.8957,5.9018,5.9035,5.9051,5.9102,5.9121,5.8889,5.8889,5.8889,0,5.8197,5.8303,5.8298,5.8377,5.8413,5.8379,5.8467,5.8498,5.8562,5.8586,5.8551,5.8682,5.8709,5.8825,5.8863,5.889,5.8911,5.887,5.9034,5.9049,5.9063,5.9112,5.9132,5.8894,5.8893,5.8893,5.8892,0,5.8385,5.8459,5.8525,5.8588,5.8632,5.8715,5.8719,5.8764,5.8752,5.8761,5.8858,5.8889,5.8951,5.8979,5.8968,5.9092,5.9071,5.9035,5.897,5.909,5.9135,5.9154,5.8902,5.89,5.8898,5.8897,0,0,5.8579,5.8637,5.8661,5.8687,5.8737,5.8792,5.8872,5.8934,5.897,5.9015,5.9078,5.9169,5.9135,5.9169,5.9161,5.9215,5.9331,5.9172,5.9172,5.9197,5.9465,5.9488,5.9511,5.9313,5.9317,5.932,5.9459,0,5.8727,5.8869,5.8865,5.8995,5.906,5.9027,5.9096,5.9132,5.9142,5.9196,5.9207,5.927,5.9223,5.9242,5.9294,5.9306,5.9384,5.9296,5.9368,5.9371,5.9355,5.9535,5.9562,5.9692,5.9478,5.9481,5.9483,0,5.8918,5.8969,5.9106,5.9142,5.9169,5.9232,5.9285,5.934,5.9378,5.9381,5.9418,5.9401,5.9478,5.9413,5.9517,5.9457,5.9487,5.9497,5.9502,5.9505,5.9432,5.9539,5.9734,5.9752,5.9512,5.9509,5.9507,0,5.9041,5.9144,5.9238,5.9262,5.9308,5.9351,5.9372,5.9406,5.9442,5.9489,5.9511,5.9567,5.9596,5.9637,5.9634,5.9588,5.9738,5.9674,5.9739,5.9739,5.9769,5.9767,5.9967,5.9795,5.9795,5.9794,5.9794,0,5.9204,5.9288,5.9293,5.935,5.9442,5.9436,5.9526,5.9541,5.9572,5.9629,5.9605,5.9658,5.9652,5.9706,5.9704,5.9787,5.9802,5.9804,5.9801,5.9804,5.9803,5.982,5.981,5.98,5.9798,5.9797,5.9797,0,5.9355,5.9363,5.9462,5.9497,5.9507,5.9573,5.96,5.9653,5.9661,5.9733,5.975,5.9761,5.9822,5.9824,5.9894,5.9892,5.9993,5.9983,5.998,5.9977,6.004,6.0033,6.0256,6.0283,6.0097,6.0099,6.01,0,5.9457,5.9521,5.9562,5.9599,5.9622,5.9683,5.9719,5.9714,5.9752,5.9799,5.9845,5.9904,5.9951,6.0049,6.0062,6.0115,6.0102,6.0177,6.011,6.0109,6.0098,6.0093,6.0097,6.0189,6.0191,6.0193,6.0194,0,5.9636,5.9636,5.969,5.9745,5.9789,5.9831,5.9871,5.9902,5.9901,5.9945,6.0008,6.0044,6.0115,6.0172,6.0222,6.024,6.0216,6.0215,6.0232,6.0234,6.0228,6.0227,6.0012,6.021,6.0208,6.0207,6.0206,6.0205,5.9763,5.9816,5.9852,5.9912,5.9941,5.9978,6.0028,6.0041,6.0094,6.0152,6.0146,6.0214,6.0246,6.0312,6.0334,6.0385,6.0359,6.0385,6.0391,6.0396,6.0401,6.0223,6.0395,6.0394,6.0394,6.0394,6.0393,0,5.9936,5.9957,6.0013,6.0068,6.0114,6.009,6.0131,6.017,6.0231,6.0265,6.0311,6.038,6.0435,6.0452,6.0504,6.0541,6.0531,6.0555,6.055,6.0553,6.0424,6.0402,6.0562,6.0562,6.0562,6.0562,6.0562,6.0562,6.0032,6.0119,6.0122,6.0222,6.0242,6.031,6.0335,6.0367,6.0393,6.0472,6.0518,6.0529,6.0554,6.0608,6.0655,6.0658,6.0677,6.0704,6.0702,6.058,6.0563,6.0547,6.0526,6.0709,6.071,6.0827,6.0828,6.0829]}]]